Location: Wellington
(41.3000°S, 174.7830°E)
Time: 03:53:12
(UTC+13:00)

CZ-4C R/B - Pass Details

Date: 24 January 2019
Orbit: 671 x 1331 km, 63.4° (Epoch: 21 February)

Event Time Altitude Azimuth Distance (km) Brightness Sun altitude
Rises 22:00:52 0° 211° (SSW) 3,690 7.0 -12.1°
Reaches altitude 10° 22:04:35 10° 191° (S) 2,599 5.5 -12.6°
Maximum altitude 22:08:25 17° 151° (SSE) 1,993 4.3 -13.2°
Drops below altitude 10° 22:11:54 10° 110° (ESE) 2,336 4.2 -13.7°
Enters shadow 22:13:13 - 99° (E) 2,650 4.4 -13.8°
